カタログに戻る

CZ-4 DEB

運用中SSO
NORAD 26196·DEBRIS·🇨🇳 China

打ち上げ Oct 14, 1999 から Taiyuan Satellite Launch Center

Loading…

次のパス (今後24時間)

TLE

最新Source: Space-Track

元期: Sep 14, 2026, 13:45 UTC

1 26196U 99057CJ  26257.57355720  .00000337  00000-0  24422-3 0  9990
2 26196  98.8814 148.5334 0335941 316.6659 159.1123 13.78929961329341

AllMySatでCZ-4 DEBをリアルタイム追跡

Download on the App Store